User: anonymous   Login
Location: Squamish
(49.7000°N, 123.1500°W)
Time: 04:01:11
(UTC-07:00)
Language:

NOAA 19 - Orbit

View from above orbital plane
View from above orbital plane
View from above satellite
View from above satellite

Ground track
Ground track

The orbit data is extracted from the following two-line orbital elements,

1 33591U 09005A   18174.94141589 +.00000103 +00000-0 +81089-4 0  9991
2 33591 099.1420 153.1021 0013170 311.2123 048.7912 14.12287808482866
Epoch (UTC): 23 June 2018 22:35:38
Eccentricity: 0.0013170
inclination: 99.1420°
perigee height: 842 km
apogee height: 861 km
right ascension of ascending node: 153.1021°
argument of perigee: 311.2123°
revolutions per day: 14.12287808
mean anomaly at epoch: 48.7912°
orbit number at epoch: 48286

The dashed part of the orbit path shows where the satellite is in the earth's shadow,  

DLR